ONEWEB-0329 (49107 NORAD) Tracking and Keplerian Element Data

This shows tracking and keplerian element data for the satellite.

Feedback or suggestion? Click here.




ElementValue
Catalog49107
NameONEWEB-0329
Epoch Orbit559
Epoch Day262.16668981
Epoch Year2021
RAAN356.4521
Inclination87.4149
Eccentricity0.0020015
Argument of Perigee198.3989
Mean Anonmoly237.8025
Mean Motion15.13622996
Decay Rate-0.0090511
L11 49107U 21075AJ 21262.16668981 -.00905110 00000-0 -54096-1 0 9997
L22 49107 87.4149 356.4521 0020015 198.3989 237.8025 15.13622996 5597

Live tracking and technical data element details for ONEWEB-0329 (NORAD 49107). ONEWEB-0329 can be tracked NOW for your location showing map with azimuth and elevation plus other details from your city location.

Track the satellite on the map from your city or location and see movement details for azimuth, elevation, latitude, longitude, range, height, and movement on the map or in text.







IsCatalogInMostPopularTable: catalog: 49107, numindb: 5
Update: records affected: 1



GetName: 49107 ONEWEB-0329

Hit Count: updated at: Fri, 24 Sep 2021 18:59:11 GMT